[ hide orbit diagram ]
For accurate long-term ephemerides, please instead use our Horizons system.This orbit viewer was implemented using two-body methods, and hence should not be used for determining accurate long-term trajectories (over several years or decades) or planetary encounter circumstances.
Orbital Elements at Epoch 2459000.5 (2020-May-31.0) TDB
Reference: JPL 38 (heliocentric ecliptic J2000)
Element | Value | Uncertainty (1-sigma) | Units |
e | .1837565392867182 | 3.446e-08 | |
a | 2.373583193641573 | 8.2134e-09 | au |
q | 1.937421760268881 | 8.1029e-08 | au |
i | 3.900540340798218 | 3.6395e-06 | deg |
node | 238.5157001718372 | 5.3749e-05 | deg |
peri | 279.0924964752666 | 5.4531e-05 | deg |
M | 264.2313864920771 | 1.0821e-05 | deg |
tp | 2459355.825039879677 (2021-May-21.32503988) | 4.1024e-05 | TDB |
period | 1335.688276891481 3.66 | 6.9329e-06 1.898e-08 | d yr |
n | .2695239647066607 | 1.399e-09 | deg/d |
Q | 2.809744627014265 | 9.7227e-09 | au |
|
| | Orbit Determination Parameters
Additional Information
|
[ show covariance matrix ]
Physical Parameter Table
Parameter |
Symbol |
Value |
Units |
Sigma |
Reference |
Notes |
absolute magnitude |
H |
13.6 |
|
n/a |
MPO395024 |
|
diameter |
diameter |
10.728 |
km |
0.051 |
urn:nasa:pds:neowise_diameters_albedos::2.0[mainbelt] (http://adsabs.harvard.edu/abs/2011ApJ...741...68M) |
|
rotation period |
rot_per |
11.605 |
h |
n/a |
LCDB (Rev. 2020-October); Warner et al., 2009 |
Published Reference List: [Dotto, E.; Rotundi, A.; De Sanctis, M.C. (1992) in Physical Properties of Small Solar System Bodies. A. Brahic, J.-C. Gerard, J. Surdej, eds. Universite de Liege, Institut d'Astrophysique, Liege, p. 211.] [Barucci, M.A.; Di Martino, M.; Dotto, E.; Fulchignoni, M.; et al. (1994) Icarus 109, 267-273.] |
geometric albedo |
albedo |
0.034 |
|
0.003 |
urn:nasa:pds:neowise_diameters_albedos::2.0[mainbelt] (http://adsabs.harvard.edu/abs/2011ApJ...741...68M) |
|
|
3052 Herzen (1976 YJ3) Discovered 1976-Dec-16 by Chernykh, L. at Nauchnyj |
Reference: DISCOVERY.DB | Last Updated: 2003-08-29 |
|
Alternate Designations
1976 YJ3 = 1952 HH3 = 1972 TE4 |
|
|